User: anonymous   Login
Location: Unspecified
(0.0000°N, 0.0000°E)
Time: 01:29:05
(UTC+02:00)
Language:

Cosmos 773 Rocket - Orbit

View from above orbital plane
View from above orbital plane
View from above satellite
View from above satellite

Ground track
Ground track

The orbit data is extracted from the following two-line orbital elements,

1 08344U 75094B   15211.73058591  .00000079  00000-0  34171-4 0  9998
2 08344 074.0590 312.2711 0021589 023.2846 336.9281 14.38982000 86802
Epoch (UTC): 30 July 2015 17:32:02
Eccentricity: 0.0021589
inclination: 74.0590°
perigee height: 746 km
apogee height: 777 km
right ascension of ascending node: 312.2711°
argument of perigee: 23.2846°
revolutions per day: 14.38982000
mean anomaly at epoch: 336.9281°
orbit number at epoch: 8680

The dashed part of the orbit path shows where the satellite is in the earth's shadow,  

DLR